[[{"header":{"parameterUnit":"m.s-1","parameterCategory":1,"la1":30.2991,"la2":30.254,"lo1":-89.0895,"lo2":-89.0444,"dy":0.0017,"dx":0.0017,"nx":28,"ny":28,"refTime":"2023-08-21T03:00:00:Z","depth":0,"parameterNumber":2,"parameterNumberName":"U-component_of_WINDS"},"data":[0,0,0,0,0,0,0,0,0,0,0,0,0,0,0,0,0,0,0,0,0,0,0,0,0,0,0,0,0,0,0,0,0,0,0,0,0,0,0,0,0,0,0,0,0,0,0,0,0,0,0,0,0,0,0,0,0,0,-6.1873,-6.1873,0,-6.1851,-6.1851,-6.185,-6.1654,-6.1649,-6.1644,-6.164,-6.1617,-6.1621,-6.1625,0,0,0,0,0,0,0,0,0,0,0,0,0,-6.1748,-6.1751,-6.1874,-6.1873,-6.1873,-6.1851,-6.185,-6.185,-6.1655,-6.1649,-6.1643,-6.1637,-6.1616,-6.162,-6.1625,0,0,0,0,0,0,0,0,0,0,0,0,0,-6.1772,-6.1752,-6.1874,-6.1773,-6.1764,-6.1851,-6.185,-6.185,-6.1656,-6.1649,-6.1641,-6.1635,-6.1614,-6.162,-6.1626,-6.1808,0,0,-6.1644,-6.1646,0,0,0,0,0,0,0,0,-6.177,-6.1776,-6.1788,-6.178,-6.177,-6.1748,-6.1797,-6.1836,-6.1658,-6.1697,-6.164,-6.1631,-6.1666,-6.1668,-6.1679,-6.1807,-6.1806,-6.1644,-6.1648,-6.165,-6.1652,0,0,0,0,0,0,0,-6.1769,-6.1776,-6.1864,-6.1788,-6.1777,-6.1729,-6.1724,-6.1804,-6.1723,-6.1693,-6.1679,-6.1679,-6.166,-6.1674,-6.1677,-6.1806,-6.1644,-6.1649,-6.1653,-6.1655,-6.208,-6.2087,0,0,0,0,0,0,-6.1781,-6.1776,-6.1865,-6.1864,-6.1752,-6.1737,-6.1732,-6.1762,-6.1721,-6.1708,-6.1685,-6.167,-6.1668,-6.1671,-6.1676,-6.1884,-6.165,-6.1656,-6.1659,-6.2072,-6.2081,-6.209,0,0,0,0,0,0,-6.178,-6.1791,-6.1866,-6.1816,-6.1822,-6.1747,-6.1783,-6.1766,-6.1779,-6.1715,-6.17,-6.1714,-6.1662,-6.1667,-6.1776,-6.188,-6.1658,-6.1664,-6.2063,-6.2075,-6.2086,-6.2304,0,0,0,0,0,0,-6.1777,-6.1792,-6.186,-6.1819,-6.1825,-6.1967,-6.1789,-6.177,-6.179,-6.177,-6.1739,-6.1726,-6.1657,-6.1768,-6.1782,-6.1884,-6.1668,-6.2053,-6.2068,-6.2082,-6.2287,-6.2321,-6.2351,0,0,0,0,0,-6.1773,-6.1923,-6.1865,-6.1876,-6.1909,-6.1974,-6.1977,-6.1893,-6.1799,-6.1867,-6.1826,-6.1727,-6.1868,-6.1781,-6.1795,-6.1901,-6.2046,-6.2064,-6.2081,-6.2272,-6.2314,-6.235,0,0,0,0,0,0,-6.1978,-6.1916,-6.185,-6.1991,-6.199,-6.194,-6.2023,-6.1941,-6.1966,-6.1946,-6.1841,-6.1836,-6.196,-6.1942,-6.1846,-6.2074,-6.194,-6.1961,-6.2081,-6.212,-6.2152,-6.2152,-6.1673,0,0,0,0,0,-6.204,-6.2097,-6.204,-6.217,-6.2172,-6.2099,-6.2124,-6.206,-6.2053,-6.2051,-6.2018,-6.2016,-6.2058,-6.2089,-6.2126,-6.2285,-6.2274,-6.2364,-6.2397,-6.2423,-6.2441,-6.2522,-6.256,-6.2147,-6.2147,-6.2146,0,0,-6.2168,-6.2141,-6.2183,-6.2211,-6.2201,-6.2262,-6.2099,-6.2171,-6.2215,-6.2062,-6.2161,-6.2138,-6.2128,-6.2262,-6.232,-6.2251,-6.2554,-6.2445,-6.2467,-6.247,-6.2544,-6.2583,-6.2618,-6.2159,-6.2157,-6.2155,0,0,-6.2431,-6.2418,-6.2523,-6.2518,-6.2506,-6.2456,-6.2482,-6.2446,-6.2423,-6.2522,-6.2408,-6.246,-6.2537,-6.2534,-6.2543,-6.2807,-6.2716,-6.2822,-6.2988,-6.3068,-6.31,-6.3129,-6.322,-6.3254,-6.2841,-6.2842,-6.2842,0,-6.2591,-6.2678,-6.2588,-6.2667,-6.2681,-6.2547,-6.2652,-6.2651,-6.2653,-6.2666,-6.2589,-6.2682,-6.2667,-6.2797,-6.2862,-6.2875,-6.2899,-6.2823,-6.3103,-6.313,-6.3155,-6.3241,-6.3276,-6.2855,-6.2853,-6.2852,-6.2851,0,-6.2874,-6.2937,-6.3023,-6.3027,-6.3052,-6.3145,-6.3068,-6.3105,-6.304,-6.2998,-6.31,-6.3077,-6.3105,-6.3132,-6.307,-6.3254,-6.3211,-6.3122,-6.2983,-6.3209,-6.3287,-6.332,-6.2873,-6.2868,-6.2864,-6.2861,0,0,-6.3262,-6.3215,-6.3248,-6.3247,-6.3225,-6.3272,-6.3359,-6.3386,-6.3418,-6.3425,-6.3493,-6.3563,-6.3478,-6.3489,-6.3425,-6.3496,-6.3703,-6.3396,-6.3394,-6.3451,-6.3902,-6.3967,-6.4006,-6.3645,-6.3651,-6.3656,-6.3901,0,-6.3511,-6.3655,-6.3577,-6.3731,-6.3786,-6.3661,-6.3736,-6.373,-6.3695,-6.3737,-6.3698,-6.3747,-6.3634,-6.3639,-6.3704,-6.3665,-6.3792,-6.3646,-6.3706,-6.3709,-6.3708,-6.4048,-6.4117,-6.4349,-6.3932,-6.3937,-6.3941,0,-6.3821,-6.3839,-6.3999,-6.3965,-6.3986,-6.4055,-6.4073,-6.4116,-6.4107,-6.4076,-6.4089,-6.4009,-6.4091,-6.3959,-6.4069,-6.3972,-6.3993,-6.3978,-6.3985,-6.3983,-6.3835,-6.4052,-6.4422,-6.4455,-6.3989,-6.3985,-6.3982,0,-6.4083,-6.4149,-6.4251,-6.4256,-6.422,-6.4271,-6.4259,-6.4243,-6.4265,-6.4282,-6.4294,-6.4322,-6.4336,-6.436,-6.4289,-6.4199,-6.4409,-6.4271,-6.4383,-6.4385,-6.4429,-6.4426,-6.4803,-6.4451,-6.445,-6.4449,-6.4449,0,-6.4367,-6.4469,-6.4368,-6.4431,-6.4541,-6.4452,-6.4564,-6.4538,-6.4526,-6.4581,-6.4477,-6.4531,-6.4436,-6.4482,-6.4427,-6.4526,-6.4534,-6.4511,-6.4494,-6.4517,-6.452,-6.4526,-6.4506,-6.4459,-6.4457,-6.4455,-6.4453,0,-6.4676,-6.4613,-6.4717,-6.4675,-6.4667,-6.475,-6.4714,-6.477,-6.4729,-6.4801,-6.4813,-6.4748,-6.4795,-6.4728,-6.477,-6.4733,-6.4868,-6.4829,-6.487,-6.4857,-6.4972,-6.4961,-6.5362,-6.5409,-6.5031,-6.5035,-6.5038,0,-6.4859,-6.4934,-6.4901,-6.493,-6.4923,-6.4973,-6.4994,-6.4911,-6.4937,-6.4934,-6.4991,-6.503,-6.5056,-6.5139,-6.5095,-6.5126,-6.5084,-6.5223,-6.5088,-6.5109,-6.5082,-6.5076,-6.5082,-6.5249,-6.5254,-6.5258,-6.5261,0,-6.5189,-6.5155,-6.5189,-6.5213,-6.5242,-6.5257,-6.5264,-6.5295,-6.5207,-6.5242,-6.5289,-6.531,-6.5352,-6.5392,-6.5412,-6.5399,-6.5315,-6.5305,-6.5331,-6.5353,-6.5372,-6.536,-6.494,-6.5294,-6.5291,-6.5288,-6.5287,-6.5285,-6.5437,-6.5497,-6.5483,-6.5524,-6.5522,-6.5531,-6.5581,-6.5547,-6.5585,-6.5611,-6.5561,-6.5621,-6.5611,-6.5629,-6.5626,-6.5672,-6.5611,-6.5651,-6.566,-6.567,-6.5686,-6.537,-6.5676,-6.5675,-6.5674,-6.5673,-6.5672,0,-6.5758,-6.5743,-6.5783,-6.5796,-6.5829,-6.5749,-6.5754,-6.5786,-6.584,-6.5838,-6.5866,-6.5921,-6.5959,-6.592,-6.595,-6.5995,-6.5957,-6.6005,-6.5999,-6.5997,-6.5741,-6.5712,-6.6035,-6.6035,-6.6035,-6.6035,-6.6035,-6.6035,-6.5929,-6.6025,-6.5989,-6.6083,-6.6067,-6.6125,-6.6134,-6.6142,-6.6139,-6.6205,-6.6236,-6.621,-6.6193,-6.6222,-6.6253,-6.6241,-6.6255,-6.6316,-6.629,-6.6051,-6.6015,-6.5981,-6.5953,-6.6321,-6.6322,-6.6541,-6.6543,-6.6545]},{"header":{"parameterUnit":"m.s-1","parameterCategory":1,"la1":30.2991,"la2":30.254,"lo1":-89.0895,"lo2":-89.0444,"dy":0.0017,"dx":0.0017,"nx":28,"ny":28,"refTime":"2023-08-21T03:00:00:Z","depth":0,"parameterNumber":3,"parameterNumberName":"V-component_of_WINDS"},"data":[0,0,0,0,0,0,0,0,0,0,0,0,0,0,0,0,0,0,0,0,0,0,0,0,0,0,0,0,0,0,0,0,0,0,0,0,0,0,0,0,0,0,0,0,0,0,0,0,0,0,0,0,0,0,0,0,0,0,-0.5465,-0.5465,0,-0.5462,-0.5462,-0.5462,-0.5491,-0.5492,-0.5493,-0.5493,-0.549,-0.5489,-0.5488,0,0,0,0,0,0,0,0,0,0,0,0,0,-0.5494,-0.5494,-0.5465,-0.5465,-0.5465,-0.5462,-0.5462,-0.5462,-0.5491,-0.5492,-0.5493,-0.5494,-0.549,-0.5489,-0.5488,0,0,0,0,0,0,0,0,0,0,0,0,0,-0.5486,-0.5494,-0.5465,-0.5479,-0.5481,-0.5462,-0.5462,-0.5462,-0.5491,-0.5492,-0.5493,-0.5494,-0.549,-0.5489,-0.5488,-0.5456,0,0,-0.5484,-0.5483,0,0,0,0,0,0,0,0,-0.5486,-0.5484,-0.5477,-0.5478,-0.548,-0.5478,-0.5471,-0.546,-0.549,-0.5487,-0.5493,-0.5495,-0.5485,-0.5484,-0.5481,-0.5455,-0.5455,-0.5484,-0.5483,-0.5482,-0.5482,0,0,0,0,0,0,0,-0.5487,-0.5485,-0.5464,-0.5477,-0.5479,-0.5485,-0.5485,-0.5469,-0.5479,-0.5487,-0.5489,-0.5489,-0.5486,-0.5482,-0.5481,-0.5455,-0.5484,-0.5483,-0.5482,-0.5481,-0.54,-0.5399,0,0,0,0,0,0,-0.5486,-0.5485,-0.5464,-0.5464,-0.5486,-0.5483,-0.5484,-0.5477,-0.5479,-0.5481,-0.5488,-0.549,-0.5484,-0.5482,-0.5481,-0.5441,-0.5482,-0.5481,-0.5481,-0.5401,-0.54,-0.5398,0,0,0,0,0,0,-0.5486,-0.5483,-0.5464,-0.5475,-0.5473,-0.5482,-0.5475,-0.5477,-0.5473,-0.548,-0.5481,-0.5482,-0.5484,-0.5483,-0.5461,-0.5442,-0.5481,-0.548,-0.5403,-0.5401,-0.5399,-0.5363,0,0,0,0,0,0,-0.5487,-0.5483,-0.5472,-0.5475,-0.5472,-0.5445,-0.5473,-0.5476,-0.5471,-0.5474,-0.5475,-0.5476,-0.5485,-0.5463,-0.546,-0.5441,-0.5479,-0.5405,-0.5402,-0.54,-0.5366,-0.536,-0.5355,0,0,0,0,0,-0.5488,-0.5463,-0.5471,-0.5469,-0.5458,-0.5444,-0.5443,-0.5454,-0.5469,-0.5457,-0.5461,-0.5476,-0.5444,-0.546,-0.5457,-0.5438,-0.5406,-0.5403,-0.54,-0.5369,-0.5362,-0.5355,0,0,0,0,0,0,-0.5459,-0.5464,-0.5473,-0.5449,-0.5445,-0.5449,-0.5435,-0.5446,-0.5439,-0.5442,-0.5456,-0.5456,-0.5431,-0.5432,-0.545,-0.5405,-0.5428,-0.5424,-0.5405,-0.5398,-0.5393,-0.5393,-0.5477,0,0,0,0,0,-0.5449,-0.5438,-0.5442,-0.542,-0.5418,-0.5426,-0.542,-0.5429,-0.5426,-0.5425,-0.5428,-0.5424,-0.5413,-0.5406,-0.5397,-0.5366,-0.5366,-0.5351,-0.5345,-0.5341,-0.5337,-0.5319,-0.5312,-0.5388,-0.5388,-0.5388,0,0,-0.543,-0.5431,-0.5423,-0.5414,-0.5413,-0.5399,-0.5425,-0.5411,-0.54,-0.5423,-0.5402,-0.5403,-0.5401,-0.5374,-0.5362,-0.5374,-0.5316,-0.5337,-0.5333,-0.5332,-0.5315,-0.5308,-0.5301,-0.5386,-0.5386,-0.5386,0,0,-0.5388,-0.5388,-0.5369,-0.5366,-0.5363,-0.5369,-0.5364,-0.5365,-0.5366,-0.5345,-0.5361,-0.5349,-0.533,-0.5327,-0.5322,-0.5275,-0.5288,-0.5272,-0.5243,-0.5224,-0.5218,-0.5213,-0.5195,-0.5188,-0.5268,-0.5268,-0.5268,0,-0.5365,-0.5346,-0.5357,-0.534,-0.5335,-0.5354,-0.5333,-0.533,-0.5324,-0.532,-0.5333,-0.5308,-0.5307,-0.5279,-0.5267,-0.5263,-0.5257,-0.5272,-0.5218,-0.5213,-0.5208,-0.5191,-0.5184,-0.5266,-0.5266,-0.5266,-0.5266,0,-0.5316,-0.5302,-0.5286,-0.5279,-0.5272,-0.5253,-0.526,-0.5252,-0.526,-0.5263,-0.524,-0.524,-0.5229,-0.5223,-0.5232,-0.5194,-0.5202,-0.5216,-0.524,-0.5199,-0.5183,-0.5176,-0.5263,-0.5264,-0.5264,-0.5265,0,0,-0.5257,-0.5255,-0.5249,-0.5244,-0.5241,-0.523,-0.5211,-0.52,-0.5191,-0.5186,-0.5169,-0.5152,-0.5164,-0.5159,-0.5167,-0.5151,-0.5111,-0.5168,-0.5168,-0.5156,-0.5068,-0.5056,-0.5049,-0.512,-0.5118,-0.5117,-0.5068,0,-0.5215,-0.5183,-0.5191,-0.5159,-0.5145,-0.5161,-0.5144,-0.514,-0.5141,-0.5129,-0.5131,-0.5117,-0.5136,-0.5133,-0.5118,-0.5119,-0.5094,-0.5123,-0.5103,-0.5102,-0.5103,-0.504,-0.5029,-0.4982,-0.5062,-0.5061,-0.506,0,-0.5162,-0.5153,-0.5119,-0.5115,-0.511,-0.5095,-0.5084,-0.5072,-0.5066,-0.5069,-0.5061,-0.5071,-0.5051,-0.5074,-0.5045,-0.5065,-0.5057,-0.5056,-0.5054,-0.5053,-0.5079,-0.5036,-0.4968,-0.496,-0.505,-0.5051,-0.5052,0,-0.5121,-0.5101,-0.5077,-0.5073,-0.5069,-0.5057,-0.5054,-0.505,-0.5042,-0.5032,-0.5026,-0.5014,-0.5008,-0.4998,-0.5004,-0.502,-0.4973,-0.4997,-0.4973,-0.4973,-0.4963,-0.4963,-0.4891,-0.4958,-0.4959,-0.4959,-0.4959,0,-0.5073,-0.5051,-0.5058,-0.5043,-0.5018,-0.5027,-0.5002,-0.5001,-0.4996,-0.4981,-0.4994,-0.4979,-0.4988,-0.4974,-0.4978,-0.4952,-0.495,-0.495,-0.4951,-0.4948,-0.4948,-0.4943,-0.4946,-0.4957,-0.4957,-0.4958,-0.4958,0,-0.5023,-0.5027,-0.5002,-0.4999,-0.4997,-0.4979,-0.4976,-0.4961,-0.4963,-0.4943,-0.4939,-0.4941,-0.4924,-0.4929,-0.4911,-0.4914,-0.4881,-0.4887,-0.4882,-0.4884,-0.4859,-0.4861,-0.4781,-0.477,-0.4845,-0.4844,-0.4844,0,-0.4992,-0.4975,-0.4969,-0.496,-0.4956,-0.494,-0.4932,-0.4939,-0.4929,-0.4919,-0.4905,-0.4889,-0.4877,-0.4849,-0.4848,-0.4834,-0.4839,-0.4812,-0.4837,-0.4834,-0.4837,-0.4838,-0.4835,-0.4807,-0.4806,-0.4805,-0.4805,0,-0.4935,-0.4937,-0.4924,-0.4911,-0.4899,-0.4889,-0.488,-0.4872,-0.4878,-0.4866,-0.4848,-0.4838,-0.4818,-0.4802,-0.4788,-0.4784,-0.4795,-0.4797,-0.479,-0.4787,-0.4785,-0.4784,-0.4868,-0.4799,-0.4799,-0.48,-0.48,-0.48,-0.4893,-0.4878,-0.4871,-0.4855,-0.4848,-0.4839,-0.4824,-0.4823,-0.4809,-0.4793,-0.4798,-0.4777,-0.4769,-0.4751,-0.4745,-0.4729,-0.4739,-0.473,-0.4727,-0.4725,-0.4721,-0.4787,-0.4726,-0.4726,-0.4727,-0.4727,-0.4727,0,-0.4836,-0.4832,-0.4817,-0.4803,-0.479,-0.48,-0.479,-0.4778,-0.4759,-0.4751,-0.4737,-0.4716,-0.4699,-0.4696,-0.468,-0.4666,-0.4671,-0.4662,-0.4663,-0.4661,-0.4714,-0.472,-0.4658,-0.4658,-0.4658,-0.4658,-0.4659,-0.4659,-0.4805,-0.4779,-0.478,-0.475,-0.4745,-0.4725,-0.4717,-0.4708,-0.4701,-0.4676,-0.4661,-0.466,-0.4653,-0.4635,-0.462,-0.4619,-0.4612,-0.4601,-0.4602,-0.4651,-0.4658,-0.4664,-0.4671,-0.4599,-0.4599,-0.4551,-0.4551,-0.455]}]]